Location: Black Swamp Observatory
(41.3920°N, 84.1250°W)
Time: 15:45:37
(UTC-05:00)

Explorer 11/Cluster Stage 4 - All Passes

Search period start: 25 January 2022 00:00
Search period end: 04 February 2022 00:00
Orbit: 467 x 1255 km, 28.8° (Epoch: 25 January)

Date Brightness Start Highest point End Pass type
(mag) Time Alt. Az. Time Alt. Az. Time Alt. Az.
25 Jan - 04:47:31 10° SSW 04:48:53 12° S 04:50:18 10° SSE visible
25 Jan - 06:34:58 10° SSW 06:36:21 12° S 06:37:47 10° SSE visible
26 Jan - 04:36:10 10° SSW 04:37:31 12° S 04:38:54 10° SSE visible
27 Jan - 04:24:48 10° SSW 04:26:09 12° S 04:27:31 10° SSE visible
28 Jan - 04:13:28 10° SSW 04:14:48 12° S 04:16:07 10° SSE night (unlit)
29 Jan - 02:14:47 10° S 02:15:58 11° S 02:17:07 10° SSE night (unlit)
29 Jan - 04:02:07 10° SSW 04:03:26 12° S 04:04:45 10° SSE night (unlit)
30 Jan - 02:02:45 10° SSW 02:04:36 13° S 02:06:21 10° SSE night (unlit)
30 Jan - 03:50:45 10° SSW 03:52:04 11° S 03:53:21 10° SSE night (unlit)
31 Jan - 01:50:52 10° SSW 01:53:14 14° S 01:55:23 10° SE night (unlit)
31 Jan - 03:39:24 10° SSW 03:40:41 11° S 03:41:56 10° S night (unlit)
31 Jan - 23:52:22 10° S 23:54:09 12° SSE 23:55:49 10° SSE night (unlit)
01 Feb - 01:39:04 10° SW 01:41:50 15° S 01:44:20 10° SE night (unlit)
01 Feb - 03:28:03 10° SSW 03:29:18 11° SSW 03:30:30 10° S night (unlit)
01 Feb - 23:39:55 10° SSW 23:42:43 14° S 23:45:16 10° SE night (unlit)
02 Feb - 01:27:17 10° SW 01:30:26 17° S 01:33:14 10° SE night (unlit)
02 Feb - 03:16:43 10° SSW 03:17:53 11° SSW 03:19:02 10° S night (unlit)
02 Feb - 23:27:42 10° SSW 23:31:15 16° S 23:34:25 10° SE night (unlit)
03 Feb - 01:15:31 10° SW 01:19:01 18° S 01:22:05 10° SE night (unlit)
03 Feb - 03:05:23 10° SSW 03:06:28 11° SSW 03:07:31 10° S night (unlit)
03 Feb - 21:30:39 10° S 21:31:50 10° SSE 21:32:58 10° SSE visible
03 Feb - 23:15:36 10° SW 23:19:47 19° S 23:23:27 10° SE night (unlit)
